Preview of NWS' New Version of Forecast
This preview is not operational and should not be used for support decisions.

Regional Weather Roundup (RWR)

Issued by National Weather Service (NWS)

                            
000
ASUS43 KMKX 201321
RWRWI 

WISCONSIN REGIONAL WEATHER ROUNDUP
NATIONAL WEATHER SERVICE MILWAUKEE/SULLIVAN WI
800 AM CDT TUE AUG 20 2019

NOTE: "FAIR" INDICATES FEW OR NO CLOUDS BELOW 12,000 FEET WITH NO
SIGNIFICANT WEATHER AND/OR OBSTRUCTIONS TO VISIBILITY.

WIZ001-002-006>008-014>016-023>028-201400-
NORTHWEST WISCONSIN
  
CITY           SKY/WX    TMP DP  RH WIND       PRES   REMARKS
SUPERIOR ARPT  CLOUDY    62  60  93 W14G22    29.97R                  
ASHLAND        FAIR      65  60  84 SW3       29.93R                  
HAYWARD        FAIR      61  57  87 CALM      29.93F                  
SIREN          FAIR      65  60  83 CALM        N/A                   
CUMBERLAND     FAIR      61  57  88 S5        29.98R                  
RICE LAKE      FAIR      62  46  55 S3        29.98R                  
CHETEK         FAIR      61  58  91 SE5       29.99R                  
LADYSMITH      FAIR      62  59  88 CALM      30.01R                  
EAU CLAIRE     FAIR      61  57  87 CALM      29.96R                  
MENOMONIE      FAIR      56  55  96 SE5       29.98R                  
NEW RICHMOND   FAIR      64  58  81 CALM      29.95R                  
OSCEOLA        FAIR      66  63  92 SE7       29.96R                  
$$
 
WIZ003>005-009-010-017-018-201400-
NORTH CENTRAL WISCONSIN
  
CITY           SKY/WX    TMP DP  RH WIND       PRES   REMARKS
MANITOWISH WTR FAIR      62  62  99 S3        29.98S                  
ARBOR VITAE    FAIR      62  58  88 CALM      29.99R                  
WOODRUFF       FAIR      62  58  88 CALM      29.99R                  
RHINELANDER    FAIR      60  56  86 CALM      30.01R                  
EAGLE RIVER    FAIR      61  58  91 SW3       30.00R                  
LAND O LAKES   NOT AVBL                                               
PHILLIPS       FAIR      64  59  84 CALM      29.99R                  
TOMAHAWK       FAIR      56  56  97 CALM      30.01R                  
MEDFORD        FAIR      59  56  91 S7        30.00R                  
MERRILL        FAIR      58  56  92 CALM      30.01R                  
$$
 
WIZ029-030-035-036-043>047-201400-
CENTRAL WISCONSIN
  
CITY           SKY/WX    TMP DP  RH WIND       PRES   REMARKS
WAUSAU         FAIR      58  55  90 E3        29.99R                  
MOSINEE        SUNNY     57  57 100 CALM      30.01R                  
MARSHFIELD     FAIR      60  56  86 S3        30.00R                  
STEVENS POINT  FAIR      61  58  89 S3        30.02R                  
WAUPACA        FAIR      61  60  97 SW3       30.02R                  
WAUTOMA        FAIR      57  56  96 SW3       30.01R                  
WISC RAPIDS    FAIR      61  55  81 S7        30.01R                  
CAMP DOUGLAS   PTSUNNY   59  59 100 S6        30.01R                  
$$
 
WIZ011>013-019>022-031-037>040-048>050-201400-
NORTHEAST WISCONSIN
  
CITY           SKY/WX    TMP DP  RH WIND       PRES   REMARKS
ANTIGO         FAIR      63  59  87 S3        30.02R                  
SHAWANO        FAIR      64  59  82 CALM      29.98R                  
OCONTO         FAIR      65  61  86 CALM      29.99R                  
STURGEON BAY   FAIR      67  62  84 S3        29.99F                  
GREEN BAY      FAIR      64  61  90 CALM      29.98F                  
MANITOWOC      CLOUDY    64  64 100 S3        30.00F FOG              
APPLETON       MOSUNNY   63  63 100 VRB5      29.97F                  
CLINTONVILLE   FAIR      61  57  88 CALM      30.00R                  
OSHKOSH        FAIR      64  61  90 S5        29.98F                  
$$
 
WIZ032>034-041-042-053>061-201400-
SOUTHWEST WISCONSIN
  
CITY           SKY/WX    TMP DP  RH WIND       PRES   REMARKS
LA CROSSE      FAIR      63  59  87 SE7       29.99R                  
SPARTA         FAIR      53  52  97 CALM      30.01R                  
VIROQUA        FAIR      64  63  95 SE7       30.00F                  
BOSCOBEL       LGT RAIN  63  62  97 CALM      29.99F                  
PRAIRIE DU CHI LGT RAIN  65  63  91 SE9       29.94F                  
PLATTEVILLE    CLOUDY    66  66 100 SW7       30.04F                  
$$

WIZ056-057-062-063-064-067-068-201400-
SOUTH CENTRAL WISCONSIN
  
CITY           SKY/WX    TMP DP  RH WIND       PRES   REMARKS
REEDSBURG      FAIR      59  59 100 CALM      30.01F                  
BARABOO/DELLS  FAIR      60  59  96 CALM      30.02F                  
LONE ROCK      PTSUNNY   62  61  96 SE3       30.01F                  
MINERAL POINT    N/A     64  64 100 MISG      30.01F                  
MADISON        CLOUDY    68  62  81 S5        30.02R                  
MIDDLETON      CLOUDY    63  29  27 CALM      30.04R                  
WATERTOWN      CLOUDY    66  66 100 CALM      30.02R                  
MONROE         FAIR      67  65  94 S7        30.02F                  
JANESVILLE     CLOUDY    68  68 100 CALM      30.03R FOG              
$$
 
WIZ051-052-058>065-066-070>072-201400-
SOUTHEAST WISCONSIN
  
CITY           SKY/WX    TMP DP  RH WIND       PRES   REMARKS
MILWAUKEE      CLOUDY    73  70  90 SE5       30.01R                  
WAUKESHA       CLOUDY    68  68 100 E6        30.03S FOG              
MILWAUKEE/TIMM FOG       70  66  88 SE5       30.01F VSB 1            
RACINE         FAIR      73  70  90 E5        30.02R                  
KENOSHA        FAIR      73  72  96 E3        30.01R                  
FOND DU LAC    FAIR      67  62  84 S5        30.00S                  
SHEBOYGAN      FOG       65  64  97 CALM      30.00F VSB<1/4          
WEST BEND      FOG       64  64 100 CALM      30.01R VSB<1/4          
JUNEAU         PTSUNNY   64  62  95 CALM      30.04R                  
$$

LSZ147-162-201400-
LAKE SUPERIOR
  
STATION/POSITION TIME  TEMP    WIND        PRES    WAVE
                       AIR SEA DIR/SP/G            HT/PER
                 (UTC) (F)     (DEG/KT/KT) (MB)    (FT/S)
W MID LAKE BUOY  1250   65 63  190/ 10/ 10 1011.6R   2/ 4
DEVILS ISLAND    1300   66     180/  6/  7 1012.8R
SAXON HARBOR     1240   67     190/  5/  9 1012.5S
$$
 
LMZ867-665-643>646-201400-
LAKE MICHIGAN
  
STATION/POSITION TIME  TEMP    WIND        PRES    WAVE
                       AIR SEA DIR/SP/G            HT/PER
                 (UTC) (F)     (DEG/KT/KT) (MB)    (FT/S)
S GREEN BAY BUOY 1300   72 70  180/ 10/ 12 1015.4
N MID LAKE BUOY  1300   69 69  200/  8/ 10 1015.7
NORTHPORT PIER   1240   68     140/  1/  3 1015.2R
KEWAUNEE LAKESHO 1248   63     180/  2/  3 1015.0F
SHEBOYGAN LAKESH 1300   66      CALM  /  1 1015.9F
PORT WASHINGTON  1230   69      40/  3/  4 1016.6F
S MID LAKE BUOY  1300   73 74  100/  8/ 10 1016.0
KENOSHA   LAKESH 1300   73      70/  1/  2 1015.9
$$

TC  - TEMPERATURE IN CELSIUS
VSB - VISIBILITY IN STATUTE MILES
WCI - WIND CHILL INDEX
HX  - HEAT INDEX